Temperature
22 21 21 21 20 21 23 24 25 25 25 25 24 23 23 22 21 20 20 20 20 20 20 20 20 20 20 20 20 20 20 20 19 19 19 19 19 19 19 19 19 19 19 19 19 19 19 19 19
22 21 21 21 21 21 23 25 25 25 25 25 24 23 23 22 21 20 20 20 21 20 20 20 20 20 20 20 20 20 20 20 19 19 19 19 19 19 19 19 19 19 19 19 19 19 19 18 18
22 22 21 20 22 22 24 25 26 26 26 25 24 23 22 21 21 20 21 21 21 21 20 20 20 20 20 20 20 20 20 20 19 19 19 19 19 19 19 19 19 19 19 19 19 19 18 18 18
22 22 22 21 23 25 25 26 26 26 25 24 23 23 22 22 21 21 21 21 21 20 20 20 20 20 20 20 20 20 20 20 20 20 19 19 19 19 20 19 19 19 19 19 19 19 18 18 18
23 22 22 22 24 26 26 27 26 26 25 24 23 22 21 21 21 21 21 21 21 21 20 20 20 20 20 20 20 20 20 20 20 20 20 19 19 19 19 19 19 19 19 19 19 19 18 18 18
23 22 22 23 25 26 27 27 26 25 24 23 23 22 21 21 21 21 21 21 21 21 21 20 20 20 20 20 20 20 20 20 20 20 20 19 19 19 19 19 19 19 19 19 19 19 18 18 18
23 22 23 24 25 26 27 27 26 25 25 24 23 21 21 21 21 21 21 21 21 20 20 20 20 20 20 20 20 20 20 20 20 20 19 19 19 19 19 19 19 19 19 19 19 18 18 18 18
25 22 23 24 25 26 27 27 26 26 25 24 23 22 21 21 21 21 21 21 21 20 20 20 20 20 20 20 20 20 20 19 19 19 19 19 19 19 19 19 19 19 19 19 19 18 18 18 18
26 23 23 25 26 26 27 27 26 26 25 24 24 23 22 22 21 21 21 20 20 20 20 20 20 20 20 20 20 20 19 19 19 19 19 19 19 19 19 19 19 19 19 19 19 18 18 18 18
25 23 25 26 27 27 28 27 27 25 24 24 23 23 22 22 22 21 21 21 20 20 20 20 20 20 20 20 20 20 19 19 19 19 19 19 19 19 19 19 19 19 18 19 18 18 18 18 18
25 25 26 28 28 28 28 27 27 25 24 23 23 22 22 22 21 21 21 21 21 20 20 20 20 20 20 20 20 20 20 19 19 19 19 19 19 19 19 19 19 18 18 18 18 18 18 18 18
26 27 28 28 29 28 28 27 27 25 24 24 24 23 22 22 22 22 21 21 21 21 20 20 20 20 20 20 20 20 20 20 19 19 19 19 19 19 19 19 19 19 19 18 18 18 18 18 18
27 28 29 29 29 28 28 27 26 25 25 24 24 23 23 22 22 22 22 21 21 21 21 20 20 20 20 20 20 20 20 20 19 19 19 19 19 19 19 19 19 18 19 18 18 18 18 18 18
28 28 29 28 28 28 27 27 26 25 25 24 24 23 23 23 22 22 22 22 21 21 21 21 20 20 20 20 20 20 20 20 19 19 19 19 19 19 19 19 19 18 18 18 18 18 18 18 18
29 27 27 28 28 28 27 26 26 26 25 24 24 24 23 23 23 22 22 22 22 21 21 21 21 20 20 20 20 20 20 20 20 19 19 19 19 19 19 19 19 19 18 18 18 18 18 18 18
27 26 26 28 28 28 27 24 26 26 25 24 24 24 23 23 23 23 22 22 22 21 21 21 21 20 20 20 20 20 20 20 20 19 19 19 19 19 19 19 19 19 19 18 18 18 18 18 18
26 25 26 27 28 28 26 25 25 26 25 25 24 24 23 23 23 23 22 22 22 22 21 21 21 21 20 20 20 20 20 20 20 19 19 19 19 19 19 19 19 19 18 18 18 18 18 18 18
25 26 27 27 28 28 26 25 26 26 26 25 24 24 23 23 23 23 23 22 22 22 21 21 21 21 20 20 20 20 20 20 20 19 19 19 19 19 19 19 19 19 18 18 18 18 18 18 18
27 27 26 27 28 27 26 25 26 26 25 25 24 24 23 23 23 23 23 23 22 22 21 21 21 21 20 20 20 20 20 20 20 19 19 19 19 19 19 19 19 19 19 19 18 18 18 18 18
27 27 27 27 28 27 25 25 25 25 25 25 24 24 24 23 23 23 23 23 22 22 22 21 21 21 20 20 20 20 20 20 19 19 19 19 19 19 19 19 19 19 19 19 18 18 18 18 18
27 27 27 27 27 26 25 25 24 25 26 25 25 24 24 23 23 23 23 22 22 22 22 21 21 21 20 20 20 20 20 20 19 19 19 19 19 19 19 19 19 19 19 19 18 18 18 18 18
27 28 29 28 25 24 25 23 24 24 24 24 24 24 24 24 23 23 23 23 22 22 22 22 21 21 21 20 20 20 20 20 20 19 19 19 19 19 19 19 19 19 19 18 18 18 18 18 18
28 29 28 27 25 24 24 23 23 23 23 23 24 24 24 24 24 23 23 23 23 22 22 22 21 21 21 20 20 20 20 20 19 19 19 19 19 19 19 19 19 18 18 18 18 18 18 18 18
29 27 26 23 22 23 24 23 22 22 23 24 24 25 25 25 24 24 23 23 23 22 22 21 21 21 21 20 20 20 20 20 19 19 19 19 19 19 19 19 19 18 18 18 18 18 18 18 18
27 24 23 23 22 22 23 23 22 24 25 25 24 25 25 25 24 24 23 23 23 22 22 21 21 21 21 20 20 20 20 19 19 19 19 19 19 19 19 19 18 18 18 18 18 18 18 18 18
27 24 23 23 22 22 23 23 23 24 25 25 25 25 25 25 24 24 23 23 23 22 22 21 21 21 21 20 20 20 20 19 19 19 19 19 19 19 19 19 18 18 18 18 18 18 18 18 18
27 25 23 22 23 22 22 23 24 24 24 24 25 24 24 24 24 24 23 23 23 22 22 22 22 21 21 21 20 20 20 19 19 19 19 19 19 19 19 18 18 18 18 18 18 18 18 18 18
27 25 22 22 22 22 23 23 22 23 23 23 23 23 24 24 24 23 23 23 23 22 22 22 22 21 21 21 20 20 20 19 19 19 19 19 19 19 18 18 18 18 18 18 18 18 18 18 18
27 26 22 20 21 21 22 22 23 22 22 22 22 23 23 24 24 23 23 23 23 22 22 22 21 21 21 20 20 20 19 19 19 19 19 19 18 18 18 18 18 18 18 18 18 18 17 17 17
26 25 23 23 22 20 20 21 24 23 23 23 23 23 23 23 24 23 23 23 23 22 22 22 21 21 21 20 20 20 19 19 19 19 19 18 18 18 18 18 18 18 18 18 17 17 17 17 17
Wind_Speed
9 7 3 1 2 3 3 2 5 7 6 8 11 11 9 7 6 6 3 7 8 7 8 10 12 13 14 14 14 14 14 15 15 15 14 14 13 13 13 14 15 15 15 15 14 14 13 13 13
6 5 2 1 3 3 2 3 7 9 9 11 11 11 9 8 7 8 5 7 9 8 8 10 12 14 14 14 14 14 14 14 14 13 13 13 12 12 13 13 14 14 14 14 13 13 12 12 12
5 3 1 2 1 3 3 4 7 10 10 9 7 7 5 5 6 5 6 11 9 7 8 10 13 14 14 14 14 14 14 14 13 13 12 12 12 12 12 12 13 13 13 13 13 12 12 11 11
2 1 1 2 3 2 5 6 8 11 9 9 8 7 5 5 5 7 11 11 10 7 8 10 14 13 13 13 13 13 13 13 13 12 12 12 11 11 11 12 13 13 12 12 12 12 11 11 10
1 1 3 2 2 3 6 8 8 8 6 9 10 8 5 4 10 12 10 10 10 7 7 10 14 14 13 13 13 13 13 12 12 12 11 11 10 10 12 12 12 12 12 12 12 12 11 10 9
1 2 2 1 3 4 6 9 10 12 13 11 10 8 3 5 10 9 9 9 9 9 7 9 12 13 13 13 13 12 12 11 11 10 10 10 10 11 12 11 11 11 11 11 11 11 10 9 8
2 2 1 2 3 5 5 6 10 11 11 8 8 6 4 4 7 9 9 9 8 8 7 6 9 10 12 12 12 12 11 11 10 10 10 10 9 10 10 10 10 11 11 10 10 10 9 8 8
4 2 0 1 3 4 6 6 8 10 9 10 7 7 5 5 7 9 9 8 8 7 6 6 6 7 8 9 11 11 10 10 9 9 9 9 9 9 8 8 9 10 10 9 9 8 8 7 7
3 2 1 3 4 4 7 9 6 8 10 6 6 7 9 11 10 10 7 6 6 6 6 6 6 6 6 7 9 9 9 9 8 7 8 7 6 6 7 8 9 8 8 7 7 6 6 6 6
4 3 5 4 4 6 8 10 8 8 11 10 10 11 12 11 10 10 8 7 7 7 6 6 6 6 6 6 7 7 7 6 6 6 6 6 5 5 6 8 8 8 7 6 5 4 4 3 3
4 5 3 2 4 6 7 7 6 11 8 11 14 14 12 11 9 9 8 8 7 7 7 6 6 6 6 4 5 5 5 5 5 5 6 6 5 5 5 4 5 4 4 3 3 2 1 1 2
3 4 4 3 4 6 7 7 7 8 9 12 15 15 13 11 9 9 8 7 7 7 7 6 5 5 5 6 5 4 4 4 4 4 6 5 4 3 3 3 4 3 3 2 2 1 1 1 2
3 3 4 5 4 5 6 8 10 10 13 14 14 13 12 11 9 8 8 8 7 7 6 5 5 5 4 5 4 5 4 4 5 5 5 6 4 4 4 3 3 3 3 3 2 1 1 1 1
3 2 2 3 4 5 9 7 8 10 13 14 14 11 11 12 10 9 8 8 7 7 6 5 5 5 6 5 4 4 4 4 4 4 5 7 5 4 4 3 2 3 4 3 3 2 2 2 2
2 3 1 3 4 6 10 5 8 13 14 13 13 12 11 11 11 11 10 9 8 8 7 6 5 5 6 5 4 4 4 5 4 3 5 6 6 5 4 3 2 3 4 4 2 2 2 2 2
3 3 0 3 3 5 8 6 7 12 14 13 12 11 11 9 11 11 10 9 8 8 7 6 6 6 5 4 4 3 4 5 4 4 5 6 6 6 4 3 2 2 3 3 2 2 1 1 1
2 0 2 3 3 4 5 5 9 11 13 12 11 11 11 9 8 9 10 10 9 9 8 6 6 5 4 4 4 3 3 4 3 4 4 5 5 6 4 3 2 3 2 2 2 2 2 2 1
4 2 2 3 2 4 5 5 10 11 13 13 11 11 11 11 10 9 9 9 9 8 8 7 6 5 4 3 3 3 3 2 2 2 3 4 4 5 4 2 2 2 1 1 1 2 1 2 2
4 3 3 3 3 4 4 4 7 8 10 11 10 11 11 11 9 9 10 10 9 8 7 7 6 5 4 3 3 3 2 2 2 1 3 4 5 5 4 2 2 2 2 2 2 2 1 1 1
4 3 3 2 1 3 3 2 4 7 10 11 13 13 12 10 9 10 10 10 9 8 8 7 7 6 5 3 3 3 3 2 2 1 1 3 4 4 4 3 2 2 2 1 1 2 1 1 2
4 5 5 2 2 3 4 2 1 2 5 7 9 11 12 13 13 12 11 10 10 9 9 9 7 6 6 5 3 3 3 2 1 1 0 1 3 3 2 2 2 2 2 2 2 2 3 2 1
4 5 5 3 2 1 2 1 5 3 4 6 7 9 11 12 12 12 12 11 11 11 9 8 8 7 6 5 5 5 4 3 3 2 2 1 2 2 2 2 2 2 2 2 2 2 2 2 2
6 3 2 2 3 1 1 3 5 1 4 6 8 10 11 13 14 14 14 13 12 10 9 7 7 6 5 6 6 5 4 3 2 2 2 2 1 1 1 2 2 2 2 2 1 1 2 2 2
3 3 6 6 5 1 4 4 5 5 8 7 7 9 10 11 12 12 11 10 9 9 8 7 7 6 5 6 6 6 6 4 4 3 2 1 1 1 2 1 2 2 2 2 2 2 2 2 2
3 5 4 5 4 5 3 2 6 6 8 9 9 9 9 10 10 9 10 11 10 10 9 8 8 6 6 6 5 5 6 5 5 4 3 3 1 1 2 2 2 2 2 3 2 2 2 2 2
3 8 7 4 4 5 3 2 5 3 6 7 7 8 9 10 10 9 10 11 10 10 10 10 9 7 7 6 5 5 5 4 3 4 3 3 3 3 3 3 2 2 2 2 2 2 2 1 2
3 3 8 7 2 0 3 2 4 2 4 6 7 7 8 9 10 9 9 9 10 10 10 11 10 8 7 7 6 5 5 4 4 3 3 3 3 3 2 2 2 2 2 2 2 2 2 1 2
6 6 6 5 4 1 3 2 3 2 2 3 5 6 6 7 8 8 7 7 7 8 7 8 8 8 7 7 6 5 5 5 4 3 3 3 2 2 2 2 2 2 2 2 1 2 2 1 2
0 3 5 5 6 6 2 5 5 7 6 6 5 6 8 8 9 9 8 7 7 7 7 6 6 6 6 6 5 5 4 4 3 3 3 3 2 2 2 2 2 2 2 2 2 2 2 2 2
4 4 6 5 3 5 5 5 4 5 5 6 5 5 6 8 8 9 8 7 7 7 7 6 6 6 6 6 5 5 4 4 3 3 3 2 2 2 2 2 2 2 2 2 2 3 2 2 2
Wind_Direction
177 174 176 192 33 41 57 72 96 80 65 65 74 81 80 66 85 121 170 141 136 139 138 132 125 121 118 117 114 113 113 114 115 116 117 121 123 128 132 136 138 140 142 144 145 145 143 141 138
167 169 187 49 69 73 62 96 87 98 117 104 80 78 75 70 83 112 131 141 135 134 135 134 129 125 121 119 117 116 115 115 116 118 119 122 124 127 133 138 140 141 143 145 146 147 145 142 140
180 185 167 68 85 131 121 119 110 108 109 97 86 63 68 91 100 126 151 143 132 127 135 138 133 128 125 122 120 119 118 118 119 119 118 119 122 125 132 138 142 143 145 149 150 149 148 145 145
162 136 25 65 86 119 125 126 110 104 92 85 94 72 62 90 117 136 138 136 131 132 139 141 135 131 129 126 124 122 120 118 118 118 117 117 120 126 134 139 142 145 149 152 153 153 152 151 149
128 89 49 42 81 97 115 118 116 104 93 95 95 95 77 81 116 131 137 137 137 141 145 144 139 136 133 131 128 125 122 119 117 116 119 121 125 130 135 139 143 146 149 151 153 155 154 150 148
80 76 65 78 95 91 104 118 109 100 110 109 104 105 104 122 124 137 140 142 142 145 144 147 145 142 138 135 134 131 127 124 121 119 121 122 122 126 132 135 142 146 148 151 154 157 153 149 151
123 95 151 145 111 111 119 114 111 121 120 120 120 102 123 130 132 135 137 136 137 139 139 141 148 147 143 142 142 139 135 132 128 126 126 125 126 127 129 137 141 147 149 150 151 153 155 159 158
159 114 22 110 130 136 135 111 118 117 119 125 119 122 152 167 132 125 125 129 135 136 143 146 148 146 148 150 153 148 145 141 137 136 135 133 135 136 135 136 140 144 147 149 153 157 159 165 163
134 87 192 191 154 147 133 113 106 93 106 107 99 123 148 143 127 120 115 116 132 141 153 154 155 158 161 159 158 154 151 150 144 146 146 144 141 143 143 141 146 149 147 149 158 164 166 168 171
127 159 210 198 155 144 134 127 125 106 101 101 102 113 129 133 133 131 134 138 144 151 159 162 163 171 172 169 163 162 156 151 145 146 149 148 148 151 148 146 147 148 151 156 162 162 159 171 179
161 190 195 164 143 137 128 121 115 121 118 139 139 142 142 141 139 140 142 142 149 155 152 154 160 169 172 163 160 168 164 153 150 146 148 149 147 147 142 144 145 145 149 156 155 148 148 179 194
165 217 195 169 149 128 130 130 113 124 146 151 146 147 148 148 152 151 145 142 138 136 143 149 152 154 158 153 162 163 163 157 157 151 145 147 144 144 151 152 156 152 157 153 154 163 197 234 221
172 209 179 165 130 127 118 120 118 127 138 143 143 144 148 151 150 147 145 138 132 132 136 138 135 140 146 142 150 148 153 154 159 148 148 148 147 147 148 152 162 162 163 167 175 185 203 221 231
221 161 159 152 137 137 124 119 115 145 145 146 148 152 151 151 148 141 140 140 140 142 144 143 132 130 128 125 127 136 143 148 141 141 144 149 150 148 144 147 154 170 174 179 188 196 207 226 224
70 61 342 205 160 159 127 114 147 159 150 150 155 155 151 153 148 150 153 151 149 148 144 145 142 124 120 122 127 132 137 138 138 146 142 144 149 152 148 145 158 177 171 165 167 205 213 214 207
23 48 209 246 171 171 130 157 171 160 152 156 160 157 151 153 153 155 152 147 145 141 140 146 138 126 125 124 125 125 134 135 140 146 144 156 161 155 147 147 168 172 155 152 162 177 193 213 213
18 330 251 263 210 163 129 168 178 168 157 163 163 158 153 151 148 152 154 151 149 146 142 137 128 132 136 128 124 122 124 127 137 141 149 157 154 151 152 159 169 169 156 174 192 171 179 197 230
246 237 251 227 218 134 128 166 176 175 168 168 164 161 157 159 165 157 154 154 150 147 143 141 137 138 132 116 105 98 92 102 120 138 159 159 152 152 154 157 170 163 143 192 199 188 196 202 213
223 222 255 251 158 116 141 158 179 175 171 168 168 167 165 170 165 153 155 158 148 145 147 150 146 146 133 121 121 123 129 132 129 143 158 155 160 161 154 158 161 148 163 199 200 176 193 222 166
224 224 246 293 126 117 145 186 188 173 179 176 173 173 170 161 156 161 162 161 158 158 159 159 159 157 158 157 154 151 146 144 140 125 129 159 165 162 159 157 171 166 170 205 207 166 175 212 159
258 202 201 197 44 53 92 352 263 211 169 165 166 169 168 167 171 174 169 168 164 168 170 170 171 167 165 156 132 111 86 74 71 98 156 191 172 169 165 173 171 173 173 194 210 188 175 205 242
260 227 175 162 109 274 132 214 268 205 183 175 170 171 176 174 173 174 173 173 174 177 175 172 171 168 166 153 145 145 147 161 195 191 191 193 164 162 165 167 180 186 179 188 220 197 179 168 222
217 208 134 140 120 21 10 131 270 211 196 205 192 183 181 179 177 179 179 177 177 174 171 171 167 167 162 154 154 150 153 169 169 158 168 193 219 195 184 177 188 192 187 196 206 202 185 178 191
183 54 29 44 68 344 249 163 254 220 202 197 197 189 185 178 177 177 173 164 165 165 160 160 161 169 167 159 154 154 156 157 151 159 180 212 249 261 248 221 211 206 202 204 202 202 199 193 191
84 86 31 4 7 260 265 160 245 221 191 183 185 182 174 164 166 169 167 165 164 162 164 167 166 173 176 166 165 165 164 165 173 181 190 193 210 238 253 238 219 219 217 213 206 204 218 208 206
192 138 155 190 225 273 322 223 263 220 177 166 159 158 161 158 160 169 172 167 167 169 170 172 175 177 176 171 174 172 166 169 176 181 180 191 207 220 231 222 224 227 215 211 202 215 233 225 227
166 171 167 145 170 290 297 295 322 26 106 136 143 146 162 163 159 163 165 166 169 174 179 177 177 177 177 176 174 173 173 172 178 182 178 196 210 214 217 215 216 224 213 209 196 216 243 248 249
165 155 99 116 151 247 294 266 229 241 169 138 131 145 152 154 153 155 161 165 164 170 174 173 170 175 176 176 179 181 183 184 179 175 187 197 214 217 199 218 219 216 204 202 199 225 244 240 260
79 94 112 122 147 156 223 271 226 200 176 157 156 154 154 156 158 162 166 161 155 152 150 161 168 167 168 172 175 175 179 181 172 178 196 199 209 206 202 208 207 209 209 206 191 224 224 224 260
159 167 148 155 217 164 160 258 261 188 169 156 158 152 152 161 163 163 160 150 150 155 155 163 173 174 175 171 166 171 173 168 169 186 200 192 205 224 216 207 208 216 217 218 205 221 235 224 239
Height
1509 1509 1509 1511 1512 1517 1516 1507 1499 1498 1499 1499 1498 1499 1503 1506 1510 1518 1515 1513 1513 1512 1511 1511 1510 1509 1509 1508 1508 1508 1508 1508 1509 1511 1513 1515 1516 1518 1519 1520 1521 1523 1524 1526 1528 1530 1532 1533 1535
1509 1510 1511 1511 1517 1526 1519 1505 1501 1500 1500 1500 1501 1503 1504 1508 1510 1512 1513 1514 1514 1513 1513 1512 1512 1512 1511 1511 1511 1511 1511 1512 1513 1514 1515 1516 1517 1518 1519 1520 1521 1523 1524 1526 1528 1530 1532 1534 1535
1509 1510 1512 1512 1518 1522 1516 1504 1500 1499 1500 1500 1503 1505 1507 1511 1512 1513 1514 1515 1515 1514 1514 1514 1514 1513 1513 1513 1513 1514 1514 1515 1515 1516 1517 1517 1518 1518 1519 1520 1521 1523 1525 1527 1529 1530 1532 1534 1535
1510 1511 1512 1516 1517 1508 1504 1501 1499 1500 1502 1503 1504 1508 1511 1513 1513 1514 1514 1515 1515 1515 1515 1515 1515 1515 1515 1516 1516 1516 1517 1517 1518 1518 1518 1519 1519 1519 1520 1521 1522 1523 1525 1527 1529 1531 1533 1534 1536
1510 1511 1516 1519 1513 1503 1499 1499 1499 1500 1503 1506 1505 1511 1514 1515 1514 1514 1515 1516 1515 1516 1516 1517 1517 1517 1517 1518 1518 1519 1519 1519 1520 1520 1520 1521 1521 1520 1521 1521 1523 1524 1526 1527 1529 1531 1533 1535 1536
1511 1512 1522 1523 1512 1503 1500 1499 1500 1503 1506 1507 1508 1511 1515 1516 1515 1515 1515 1516 1516 1516 1517 1518 1518 1518 1519 1519 1520 1520 1521 1522 1522 1522 1522 1522 1522 1522 1522 1523 1524 1525 1527 1528 1530 1532 1534 1535 1536
1511 1514 1520 1516 1512 1507 1502 1500 1501 1504 1506 1508 1509 1512 1516 1517 1516 1516 1516 1516 1517 1517 1518 1519 1519 1520 1520 1521 1522 1523 1523 1524 1524 1524 1524 1525 1525 1525 1525 1525 1526 1527 1528 1530 1531 1533 1534 1535 1537
1509 1513 1517 1514 1511 1508 1502 1501 1502 1503 1506 1509 1510 1512 1515 1517 1517 1516 1517 1517 1517 1518 1518 1519 1520 1521 1522 1523 1524 1524 1525 1525 1525 1526 1526 1527 1527 1527 1527 1527 1528 1529 1530 1531 1532 1534 1535 1536 1537
1508 1516 1520 1512 1508 1505 1501 1502 1505 1505 1506 1509 1510 1511 1514 1516 1517 1517 1517 1518 1518 1518 1519 1520 1521 1522 1523 1524 1525 1526 1526 1527 1527 1528 1528 1528 1529 1529 1529 1530 1530 1531 1531 1532 1533 1535 1535 1536 1537
1507 1516 1511 1502 1500 1501 1500 1501 1504 1508 1509 1511 1512 1514 1516 1517 1517 1517 1517 1517 1518 1518 1519 1520 1521 1522 1524 1525 1526 1527 1527 1528 1528 1529 1529 1530 1530 1531 1531 1531 1532 1533 1533 1534 1535 1535 1536 1537 1537
1504 1507 1501 1498 1498 1499 1500 1502 1504 1507 1511 1511 1512 1515 1516 1517 1518 1518 1518 1518 1518 1519 1520 1521 1522 1523 1524 1525 1526 1527 1528 1529 1529 1530 1530 1531 1531 1532 1532 1532 1533 1533 1534 1534 1535 1536 1536 1537 1537
1501 1500 1499 1498 1497 1498 1500 1502 1505 1506 1510 1511 1512 1514 1516 1517 1518 1518 1518 1519 1519 1520 1521 1522 1523 1523 1524 1525 1527 1528 1529 1530 1530 1531 1531 1532 1532 1532 1533 1533 1534 1534 1535 1535 1536 1536 1537 1537 1538
1499 1498 1496 1496 1497 1499 1500 1502 1504 1508 1510 1512 1513 1515 1516 1517 1518 1519 1519 1520 1521 1521 1522 1523 1523 1523 1524 1526 1527 1529 1530 1531 1531 1532 1532 1532 1533 1533 1533 1534 1534 1535 1535 1536 1536 1537 1537 1537 1537
1497 1497 1497 1497 1497 1499 1501 1503 1505 1509 1510 1512 1513 1515 1516 1517 1518 1519 1520 1521 1522 1522 1523 1524 1524 1524 1525 1527 1528 1529 1530 1531 1532 1532 1533 1533 1533 1534 1534 1534 1535 1535 1536 1536 1536 1537 1537 1537 1537
1497 1499 1500 1497 1496 1498 1501 1507 1506 1508 1510 1512 1513 1515 1516 1517 1518 1519 1520 1521 1522 1523 1524 1525 1526 1526 1527 1529 1530 1531 1531 1532 1533 1533 1534 1534 1534 1534 1535 1535 1535 1536 1536 1536 1536 1537 1537 1537 1537
1499 1505 1510 1499 1496 1498 1504 1517 1507 1507 1509 1511 1513 1515 1516 1517 1518 1519 1520 1521 1523 1524 1525 1526 1527 1528 1529 1530 1531 1532 1533 1533 1534 1534 1534 1535 1535 1535 1536 1536 1536 1536 1536 1536 1536 1536 1536 1536 1536
1509 1516 1513 1504 1495 1497 1503 1511 1506 1506 1508 1510 1512 1515 1516 1517 1519 1520 1521 1522 1523 1524 1526 1527 1528 1529 1530 1531 1532 1533 1534 1534 1535 1535 1535 1535 1536 1536 1536 1536 1536 1536 1536 1536 1536 1536 1536 1536 1536
1517 1514 1511 1507 1497 1498 1503 1506 1503 1504 1506 1507 1511 1513 1515 1516 1517 1519 1521 1523 1524 1525 1526 1528 1529 1530 1531 1532 1532 1533 1534 1535 1535 1535 1535 1536 1536 1536 1536 1536 1536 1536 1536 1536 1536 1536 1536 1536 1536
1503 1507 1510 1502 1495 1499 1504 1505 1504 1504 1506 1507 1510 1511 1513 1514 1517 1519 1521 1522 1523 1525 1526 1528 1529 1530 1531 1532 1532 1533 1534 1535 1535 1535 1536 1536 1536 1536 1536 1536 1536 1536 1535 1535 1535 1535 1535 1535 1535
1501 1508 1508 1501 1495 1499 1506 1506 1502 1502 1503 1505 1506 1509 1511 1513 1516 1518 1519 1521 1523 1524 1526 1527 1529 1530 1531 1532 1533 1534 1534 1535 1535 1535 1536 1536 1536 1536 1536 1535 1535 1535 1535 1534 1534 1534 1534 1534 1534
1500 1504 1504 1503 1499 1500 1507 1514 1508 1503 1502 1503 1505 1507 1510 1512 1514 1516 1518 1520 1522 1524 1525 1526 1528 1529 1530 1531 1532 1533 1534 1534 1534 1535 1535 1535 1535 1535 1535 1534 1534 1534 1534 1533 1533 1533 1533 1532 1533
1504 1491 1492 1497 1508 1518 1513 1532 1514 1505 1503 1502 1504 1506 1507 1509 1512 1514 1516 1518 1520 1522 1524 1526 1527 1528 1529 1531 1531 1532 1532 1532 1533 1533 1533 1534 1534 1534 1534 1534 1533 1533 1533 1532 1532 1531 1531 1531 1531
1492 1487 1490 1495 1507 1518 1515 1527 1521 1507 1507 1504 1502 1503 1504 1506 1508 1511 1513 1515 1518 1520 1522 1524 1526 1527 1528 1529 1530 1531 1531 1532 1532 1532 1532 1533 1533 1533 1533 1533 1532 1532 1531 1531 1531 1530 1529 1529 1529
1484 1490 1496 1504 1516 1532 1520 1525 1526 1510 1504 1501 1500 1500 1501 1504 1506 1509 1512 1514 1517 1519 1521 1523 1525 1526 1527 1528 1529 1529 1530 1530 1531 1531 1531 1531 1531 1531 1531 1531 1531 1530 1530 1530 1529 1529 1528 1527 1527
1487 1508 1529 1534 1541 1537 1518 1521 1520 1499 1493 1494 1496 1497 1499 1501 1505 1508 1511 1513 1515 1517 1519 1521 1523 1524 1526 1527 1527 1528 1528 1529 1530 1530 1530 1530 1530 1530 1529 1529 1529 1529 1528 1528 1527 1527 1526 1526 1525
1489 1503 1530 1543 1545 1535 1519 1523 1510 1493 1490 1492 1494 1495 1498 1500 1503 1506 1509 1511 1514 1516 1518 1520 1521 1523 1524 1525 1526 1527 1527 1528 1528 1528 1528 1528 1528 1528 1528 1528 1527 1527 1527 1526 1525 1525 1524 1524 1524
1489 1499 1502 1522 1528 1536 1529 1517 1503 1492 1492 1493 1494 1495 1497 1499 1502 1505 1508 1510 1513 1515 1517 1518 1520 1521 1523 1524 1525 1525 1526 1526 1527 1527 1527 1527 1527 1526 1526 1526 1525 1525 1525 1524 1524 1523 1522 1522 1522
1479 1487 1506 1521 1535 1542 1531 1522 1519 1503 1498 1494 1495 1496 1497 1499 1502 1505 1507 1509 1511 1513 1516 1518 1519 1520 1521 1522 1523 1524 1524 1525 1525 1526 1525 1525 1525 1525 1524 1524 1523 1523 1523 1522 1521 1521 1520 1520 1519
1484 1490 1501 1517 1522 1538 1542 1530 1499 1498 1495 1495 1495 1496 1497 1497 1500 1503 1506 1508 1510 1512 1514 1516 1518 1519 1520 1520 1521 1522 1522 1523 1523 1524 1524 1523 1523 1523 1522 1522 1521 1521 1520 1520 1519 1518 1518 1517 1517
1479 1487 1498 1514 1521 1524 1533 1526 1491 1492 1491 1493 1494 1495 1496 1497 1499 1502 1504 1506 1509 1511 1513 1515 1516 1517 1518 1518 1519 1519 1520 1521 1521 1521 1521 1521 1521 1520 1520 1519 1519 1518 1518 1517 1516 1515 1515 1515 1514